Вернуться в каталог

CHUANG XIN 26

CX-26

АктивенНаукаLEO
NORAD 69972·PAYLOAD·🇨🇳 China

Запущен Jul 10, 2026 с Wenchang Space Launch Site

Loading…

Ближайшие Пролёты (ближайшие 24 часа)

TLE

СвежийSource: Space-Track

Эпоха: Sep 14, 2026, 14:58 UTC

1 69972U 26158A   26257.62386396 -.00000166  00000-0 -26561-5 0  9990
2 69972  49.9853  21.1655 0005185 158.9598 201.1530 14.25129430  9469

Отслеживайте CHUANG XIN 26 в реальном времени с AllMySat

Download on the App Store